Time,TemperatureF,DewpointF,PressureIn,WindDirection,WindDirectionDegrees,WindSpeedMPH,WindSpeedGustMPH,Humidity,HourlyPrecipIn,Conditions,Clouds,dailyrainin,SoftwareType,DateUTC
2013-07-11 00:01:00,74.3,72.5,29.81,SSW,211,3.0,3.0,94,0.00,,,0.00,Wunderground v.1.15,2013-07-11 04:01:00,
2013-07-11 00:06:00,74.3,72.5,29.81,SW,218,0.0,5.0,94,0.00,,,0.00,Wunderground v.1.15,2013-07-11 04:06:00,
2013-07-11 00:07:00,74.3,72.5,29.80,SW,218,0.0,5.0,94,0.00,,,0.00,Wunderground v.1.15,2013-07-11 04:07:00,
2013-07-11 00:12:00,74.3,72.5,29.80,SSW,198,0.0,4.0,94,0.00,,,0.00,Wunderground v.1.15,2013-07-11 04:12:00,
2013-07-11 00:18:00,74.3,72.5,29.80,South,169,0.0,4.0,94,0.00,,,0.00,Wunderground v.1.15,2013-07-11 04:18:00,
2013-07-11 00:23:00,74.3,72.5,29.80,SW,221,0.0,3.0,94,0.00,,,0.00,Wunderground v.1.15,2013-07-11 04:23:00,
2013-07-11 00:28:00,74.3,72.5,29.80,SW,221,0.0,3.0,94,0.00,,,0.00,Wunderground v.1.15,2013-07-11 04:28:00,
2013-07-11 00:29:00,74.3,72.5,29.80,SW,221,0.0,3.0,94,0.00,,,0.00,Wunderground v.1.15,2013-07-11 04:29:00,
2013-07-11 00:34:00,74.3,72.5,29.80,SW,221,0.0,1.0,94,0.00,,,0.00,Wunderground v.1.15,2013-07-11 04:34:00,
2013-07-11 00:39:00,74.3,72.5,29.80,SW,221,0.0,1.0,94,0.00,,,0.00,Wunderground v.1.15,2013-07-11 04:39:00,
2013-07-11 00:44:00,74.3,72.5,29.80,SW,221,0.0,0.0,94,0.00,,,0.00,Wunderground v.1.15,2013-07-11 04:44:00,
2013-07-11 00:49:00,74.3,72.5,29.80,SW,221,0.0,1.0,94,0.00,,,0.00,Wunderground v.1.15,2013-07-11 04:49:00,
2013-07-11 00:54:00,74.3,72.5,29.80,SW,215,0.0,3.0,94,0.00,,,0.00,Wunderground v.1.15,2013-07-11 04:54:00,
2013-07-11 00:59:00,74.2,72.4,29.80,SW,215,0.0,3.0,94,0.00,,,0.00,Wunderground v.1.15,2013-07-11 04:59:00,
2013-07-11 01:05:00,74.1,71.9,29.79,SSW,211,0.0,0.0,93,0.00,,,0.00,Wunderground v.1.15,2013-07-11 05:05:00,
2013-07-11 01:10:00,74.0,71.8,29.79,SSW,208,0.0,0.0,93,0.00,,,0.00,Wunderground v.1.15,2013-07-11 05:10:00,
2013-07-11 01:16:00,73.9,71.7,29.79,SSW,198,0.0,3.0,93,0.00,,,0.00,Wunderground v.1.15,2013-07-11 05:16:00,
2013-07-11 01:22:00,73.8,72.0,29.79,South,182,0.0,1.0,94,0.00,,,0.00,Wunderground v.1.15,2013-07-11 05:22:00,
2013-07-11 01:28:00,73.8,72.0,29.79,South,182,0.0,1.0,94,0.00,,,0.00,Wunderground v.1.15,2013-07-11 05:28:00,
2013-07-11 01:34:00,73.7,71.9,29.79,South,182,0.0,1.0,94,0.00,,,0.00,Wunderground v.1.15,2013-07-11 05:34:00,
2013-07-11 01:39:00,73.7,71.9,29.78,South,182,2.0,2.0,94,0.00,,,0.00,Wunderground v.1.15,2013-07-11 05:39:00,
2013-07-11 01:44:00,73.6,71.8,29.79,South,182,2.0,2.0,94,0.00,,,0.00,Wunderground v.1.15,2013-07-11 05:44:00,
2013-07-11 01:50:00,73.5,71.7,29.78,South,182,1.0,1.0,94,0.00,,,0.00,Wunderground v.1.15,2013-07-11 05:50:00,
2013-07-11 01:55:00,73.5,71.7,29.78,South,180,0.0,3.0,94,0.00,,,0.00,Wunderground v.1.15,2013-07-11 05:55:00,
2013-07-11 02:01:00,73.4,71.6,29.78,South,181,0.0,1.0,94,0.00,,,0.00,Wunderground v.1.15,2013-07-11 06:01:00,
2013-07-11 02:07:00,73.4,71.6,29.78,South,180,0.0,1.0,94,0.00,,,0.00,Wunderground v.1.15,2013-07-11 06:07:00,
2013-07-11 02:12:00,73.3,71.5,29.78,South,180,0.0,0.0,94,0.00,,,0.00,Wunderground v.1.15,2013-07-11 06:12:00,
2013-07-11 02:18:00,73.3,71.5,29.78,South,180,0.0,3.0,94,0.00,,,0.00,Wunderground v.1.15,2013-07-11 06:18:00,
2013-07-11 02:23:00,73.1,71.3,29.78,South,180,0.0,0.0,94,0.00,,,0.00,Wunderground v.1.15,2013-07-11 06:23:00,
2013-07-11 02:29:00,73.1,71.3,29.78,South,180,0.0,0.0,94,0.00,,,0.00,Wunderground v.1.15,2013-07-11 06:29:00,
2013-07-11 02:34:00,73.1,71.3,29.78,South,180,0.0,1.0,94,0.00,,,0.00,Wunderground v.1.15,2013-07-11 06:34:00,
2013-07-11 02:40:00,73.1,71.3,29.78,South,180,0.0,0.0,94,0.00,,,0.00,Wunderground v.1.15,2013-07-11 06:40:00,
2013-07-11 02:45:00,73.0,71.2,29.78,SW,219,0.0,2.0,94,0.00,,,0.00,Wunderground v.1.15,2013-07-11 06:45:00,
2013-07-11 02:51:00,73.0,71.2,29.78,SW,219,0.0,0.0,94,0.00,,,0.00,Wunderground v.1.15,2013-07-11 06:51:00,
2013-07-11 02:56:00,73.0,71.2,29.78,South,171,0.0,4.0,94,0.00,,,0.00,Wunderground v.1.15,2013-07-11 06:56:00,
2013-07-11 03:01:00,72.9,71.1,29.78,SW,214,2.0,3.0,94,0.00,,,0.00,Wunderground v.1.15,2013-07-11 07:01:00,
2013-07-11 03:06:00,73.0,71.2,29.78,SW,214,0.0,4.0,94,0.00,,,0.00,Wunderground v.1.15,2013-07-11 07:06:00,
2013-07-11 03:11:00,72.9,71.1,29.77,SW,214,1.0,2.0,94,0.00,,,0.00,Wunderground v.1.15,2013-07-11 07:11:00,
2013-07-11 03:16:00,72.9,71.1,29.78,SW,214,0.0,3.0,94,0.00,,,0.00,Wunderground v.1.15,2013-07-11 07:16:00,
2013-07-11 03:21:00,72.8,71.0,29.78,SW,214,1.0,1.0,94,0.00,,,0.00,Wunderground v.1.15,2013-07-11 07:21:00,
2013-07-11 03:26:00,72.8,71.0,29.78,SSW,202,0.0,4.0,94,0.00,,,0.00,Wunderground v.1.15,2013-07-11 07:26:00,
2013-07-11 03:31:00,72.7,70.9,29.78,SW,214,0.0,3.0,94,0.00,,,0.00,Wunderground v.1.15,2013-07-11 07:31:00,
2013-07-11 03:36:00,72.7,70.9,29.78,SSW,213,4.0,4.0,94,0.00,,,0.00,Wunderground v.1.15,2013-07-11 07:36:00,
2013-07-11 03:41:00,72.7,70.9,29.79,SSW,195,0.0,0.0,94,0.00,,,0.00,Wunderground v.1.15,2013-07-11 07:41:00,
2013-07-11 03:46:00,72.7,70.9,29.79,WSW,239,2.0,5.0,94,0.00,,,0.00,Wunderground v.1.15,2013-07-11 07:46:00,
2013-07-11 03:51:00,72.7,70.9,29.79,WSW,245,5.0,5.0,94,0.00,,,0.00,Wunderground v.1.15,2013-07-11 07:51:00,
2013-07-11 03:56:00,72.7,70.9,29.79,SW,222,0.0,7.0,94,0.00,,,0.00,Wunderground v.1.15,2013-07-11 07:56:00,
2013-07-11 04:01:00,72.6,70.8,29.79,SW,223,0.0,3.0,94,0.00,,,0.00,Wunderground v.1.15,2013-07-11 08:01:00,
2013-07-11 04:06:00,72.5,70.7,29.79,SW,222,0.0,3.0,94,0.00,,,0.00,Wunderground v.1.15,2013-07-11 08:06:00,
2013-07-11 04:11:00,72.5,70.7,29.79,SW,222,0.0,3.0,94,0.00,,,0.00,Wunderground v.1.15,2013-07-11 08:11:00,
2013-07-11 04:16:00,72.5,70.7,29.80,SW,223,0.0,3.0,94,0.00,,,0.00,Wunderground v.1.15,2013-07-11 08:16:00,
2013-07-11 04:21:00,72.4,70.6,29.80,SW,223,0.0,1.0,94,0.00,,,0.00,Wunderground v.1.15,2013-07-11 08:21:00,
2013-07-11 04:26:00,72.3,70.5,29.80,SSW,213,0.0,4.0,94,0.00,,,0.00,Wunderground v.1.15,2013-07-11 08:26:00,
2013-07-11 04:31:00,72.3,70.5,29.80,SSW,213,0.0,0.0,94,0.00,,,0.00,Wunderground v.1.15,2013-07-11 08:31:00,
2013-07-11 04:36:00,72.2,70.4,29.80,SSW,213,0.0,0.0,94,0.00,,,0.00,Wunderground v.1.15,2013-07-11 08:36:00,
2013-07-11 04:41:00,72.2,70.4,29.79,SSW,213,0.0,2.0,94,0.00,,,0.00,Wunderground v.1.15,2013-07-11 08:41:00,
2013-07-11 04:46:00,72.1,70.3,29.80,SSW,213,0.0,2.0,94,0.00,,,0.00,Wunderground v.1.15,2013-07-11 08:46:00,
2013-07-11 04:52:00,72.0,70.2,29.79,SSW,213,0.0,0.0,94,0.00,,,0.00,Wunderground v.1.15,2013-07-11 08:52:00,
2013-07-11 04:57:00,71.9,70.1,29.80,SSW,213,0.0,0.0,94,0.00,,,0.00,Wunderground v.1.15,2013-07-11 08:57:00,
2013-07-11 05:02:00,71.9,70.1,29.80,SSW,213,0.0,1.0,94,0.00,,,0.00,Wunderground v.1.15,2013-07-11 09:02:00,
2013-07-11 05:07:00,71.9,70.1,29.80,SSW,213,0.0,1.0,94,0.00,,,0.00,Wunderground v.1.15,2013-07-11 09:07:00,
2013-07-11 05:12:00,71.9,70.1,29.80,SSW,213,0.0,1.0,94,0.00,,,0.00,Wunderground v.1.15,2013-07-11 09:12:00,
2013-07-11 05:17:00,71.9,70.1,29.81,SSW,213,0.0,2.0,94,0.00,,,0.00,Wunderground v.1.15,2013-07-11 09:17:00,
2013-07-11 05:22:00,71.9,70.1,29.81,SSW,213,0.0,1.0,94,0.00,,,0.00,Wunderground v.1.15,2013-07-11 09:22:00,
2013-07-11 05:26:00,71.9,70.4,29.81,SSW,213,0.0,2.0,95,0.00,,,0.00,Wunderground v.1.15,2013-07-11 09:26:00,
2013-07-11 05:31:00,71.9,70.4,29.81,SSW,213,0.0,0.0,95,0.00,,,0.00,Wunderground v.1.15,2013-07-11 09:31:00,
2013-07-11 05:36:00,72.0,70.5,29.81,SSW,213,0.0,0.0,95,0.00,,,0.00,Wunderground v.1.15,2013-07-11 09:36:00,
2013-07-11 05:41:00,72.0,70.5,29.81,SSW,213,0.0,0.0,95,0.00,,,0.00,Wunderground v.1.15,2013-07-11 09:41:00,
2013-07-11 05:46:00,72.0,70.5,29.81,SSW,213,0.0,1.0,95,0.00,,,0.00,Wunderground v.1.15,2013-07-11 09:46:00,
2013-07-11 05:51:00,72.0,70.5,29.80,SSW,213,0.0,0.0,95,0.00,,,0.00,Wunderground v.1.15,2013-07-11 09:51:00,
2013-07-11 05:56:00,72.1,70.6,29.81,SW,215,0.0,1.0,95,0.00,,,0.00,Wunderground v.1.15,2013-07-11 09:56:00,
2013-07-11 06:01:00,72.1,70.6,29.81,SE,136,0.0,0.0,95,0.00,,,0.00,Wunderground v.1.15,2013-07-11 10:01:00,
2013-07-11 06:06:00,72.1,70.6,29.81,SE,139,0.0,1.0,95,0.00,,,0.00,Wunderground v.1.15,2013-07-11 10:06:00,
2013-07-11 06:11:00,72.2,70.7,29.81,SSE,165,0.0,1.0,95,0.00,,,0.00,Wunderground v.1.15,2013-07-11 10:11:00,
2013-07-11 06:16:00,72.2,70.7,29.81,SSE,165,0.0,1.0,95,0.00,,,0.00,Wunderground v.1.15,2013-07-11 10:16:00,
2013-07-11 06:21:00,72.2,70.7,29.81,SSE,165,0.0,0.0,95,0.00,,,0.00,Wunderground v.1.15,2013-07-11 10:21:00,
2013-07-11 06:26:00,72.3,70.8,29.81,SSE,165,0.0,1.0,95,0.00,,,0.00,Wunderground v.1.15,2013-07-11 10:26:00,
2013-07-11 06:32:00,72.3,70.8,29.81,South,191,0.0,4.0,95,0.00,,,0.00,Wunderground v.1.15,2013-07-11 10:32:00,
2013-07-11 06:37:00,72.4,70.9,29.81,South,191,0.0,4.0,95,0.00,,,0.00,Wunderground v.1.15,2013-07-11 10:37:00,
2013-07-11 06:42:00,72.4,70.9,29.81,South,191,0.0,0.0,95,0.00,,,0.00,Wunderground v.1.15,2013-07-11 10:42:00,
2013-07-11 06:47:00,72.4,70.9,29.81,South,191,0.0,0.0,95,0.00,,,0.00,Wunderground v.1.15,2013-07-11 10:47:00,
2013-07-11 06:52:00,72.5,71.0,29.81,South,191,0.0,0.0,95,0.00,,,0.00,Wunderground v.1.15,2013-07-11 10:52:00,
2013-07-11 06:57:00,72.5,71.0,29.81,South,191,0.0,1.0,95,0.00,,,0.00,Wunderground v.1.15,2013-07-11 10:57:00,
2013-07-11 07:02:00,72.6,71.1,29.81,South,191,0.0,0.0,95,0.00,,,0.00,Wunderground v.1.15,2013-07-11 11:02:00,
2013-07-11 07:07:00,72.6,71.1,29.81,South,191,0.0,0.0,95,0.00,,,0.00,Wunderground v.1.15,2013-07-11 11:07:00,
2013-07-11 07:12:00,72.7,71.2,29.81,South,191,0.0,0.0,95,0.00,,,0.00,Wunderground v.1.15,2013-07-11 11:12:00,
2013-07-11 07:17:00,72.8,71.3,29.81,South,191,0.0,1.0,95,0.00,,,0.00,Wunderground v.1.15,2013-07-11 11:17:00,
2013-07-11 07:22:00,72.8,71.3,29.82,SSW,194,0.0,1.0,95,0.00,,,0.00,Wunderground v.1.15,2013-07-11 11:22:00,
2013-07-11 07:27:00,72.9,71.4,29.82,SSW,202,0.0,4.0,95,0.00,,,0.00,Wunderground v.1.15,2013-07-11 11:27:00,
2013-07-11 07:32:00,73.0,71.5,29.82,SSW,207,0.0,0.0,95,0.00,,,0.00,Wunderground v.1.15,2013-07-11 11:32:00,
2013-07-11 07:37:00,73.1,71.6,29.82,SSW,210,0.0,1.0,95,0.00,,,0.00,Wunderground v.1.15,2013-07-11 11:37:00,
2013-07-11 07:42:00,73.2,71.4,29.82,SW,214,0.0,0.0,94,0.00,,,0.00,Wunderground v.1.15,2013-07-11 11:42:00,
2013-07-11 07:47:00,73.3,71.5,29.82,SW,214,0.0,3.0,94,0.00,,,0.00,Wunderground v.1.15,2013-07-11 11:47:00,
2013-07-11 07:52:00,73.3,71.5,29.82,SW,214,0.0,0.0,94,0.00,,,0.00,Wunderground v.1.15,2013-07-11 11:52:00,
2013-07-11 07:57:00,73.4,71.6,29.81,SW,214,0.0,1.0,94,0.00,,,0.00,Wunderground v.1.15,2013-07-11 11:57:00,
2013-07-11 08:02:00,73.6,71.8,29.81,SW,215,0.0,1.0,94,0.00,,,0.00,Wunderground v.1.15,2013-07-11 12:02:00,
2013-07-11 08:07:00,73.8,72.0,29.82,SW,214,0.0,3.0,94,0.00,,,0.00,Wunderground v.1.15,2013-07-11 12:07:00,
2013-07-11 08:12:00,74.0,72.2,29.81,SW,214,0.0,0.0,94,0.00,,,0.00,Wunderground v.1.15,2013-07-11 12:12:00,
2013-07-11 08:17:00,74.2,72.4,29.82,SW,215,0.0,1.0,94,0.00,,,0.00,Wunderground v.1.15,2013-07-11 12:17:00,
2013-07-11 08:22:00,74.2,72.4,29.82,West,264,0.0,4.0,94,0.00,,,0.00,Wunderground v.1.15,2013-07-11 12:22:00,
2013-07-11 08:27:00,74.4,72.6,29.82,West,264,0.0,4.0,94,0.00,,,0.00,Wunderground v.1.15,2013-07-11 12:27:00,
2013-07-11 08:32:00,74.6,72.8,29.82,West,264,0.0,1.0,94,0.00,,,0.00,Wunderground v.1.15,2013-07-11 12:32:00,
2013-07-11 08:37:00,74.7,72.5,29.82,West,259,3.0,4.0,93,0.00,,,0.00,Wunderground v.1.15,2013-07-11 12:37:00,
2013-07-11 08:42:00,74.9,72.7,29.82,West,259,0.0,1.0,93,0.00,,,0.00,Wunderground v.1.15,2013-07-11 12:42:00,
2013-07-11 08:47:00,75.3,73.1,29.82,West,259,0.0,1.0,93,0.00,,,0.00,Wunderground v.1.15,2013-07-11 12:47:00,
2013-07-11 08:52:00,75.5,73.3,29.82,WSW,249,0.0,5.0,93,0.00,,,0.00,Wunderground v.1.15,2013-07-11 12:52:00,
2013-07-11 08:57:00,75.5,73.0,29.82,WSW,249,0.0,5.0,92,0.00,,,0.00,Wunderground v.1.15,2013-07-11 12:57:00,
2013-07-11 09:02:00,75.5,73.0,29.82,WSW,249,0.0,1.0,92,0.00,,,0.00,Wunderground v.1.15,2013-07-11 13:02:00,
2013-07-11 09:07:00,75.6,72.8,29.82,WSW,249,0.0,4.0,91,0.00,,,0.00,Wunderground v.1.15,2013-07-11 13:07:00,
2013-07-11 09:12:00,75.6,72.8,29.83,WSW,249,0.0,3.0,91,0.00,,,0.00,Wunderground v.1.15,2013-07-11 13:12:00,
2013-07-11 09:17:00,75.3,72.5,29.84,WSW,238,2.0,7.0,91,0.00,,,0.00,Wunderground v.1.15,2013-07-11 13:17:00,
2013-07-11 09:22:00,74.8,72.0,29.83,WSW,253,0.0,10.0,91,0.00,,,0.00,Wunderground v.1.15,2013-07-11 13:22:00,
2013-07-11 09:27:00,74.4,71.6,29.84,SW,218,3.0,10.0,91,0.00,,,0.00,Wunderground v.1.15,2013-07-11 13:27:00,
2013-07-11 09:32:00,73.8,71.0,29.83,SSW,210,7.0,9.0,91,0.00,,,0.00,Wunderground v.1.15,2013-07-11 13:32:00,
2013-07-11 09:37:00,73.4,70.6,29.83,SSW,198,0.0,9.0,91,0.00,,,0.00,Wunderground v.1.15,2013-07-11 13:37:00,
2013-07-11 09:42:00,73.0,70.2,29.83,SSW,198,0.0,4.0,91,0.00,,,0.00,Wunderground v.1.15,2013-07-11 13:42:00,
2013-07-11 09:47:00,72.9,70.1,29.84,South,175,0.0,4.0,91,0.00,,,0.00,Wunderground v.1.15,2013-07-11 13:47:00,
2013-07-11 09:52:00,72.9,70.4,29.84,South,175,0.0,0.0,92,0.00,,,0.00,Wunderground v.1.15,2013-07-11 13:52:00,
2013-07-11 09:57:00,72.9,70.4,29.84,South,183,0.0,5.0,92,0.00,,,0.00,Wunderground v.1.15,2013-07-11 13:57:00,
2013-07-11 10:02:00,72.8,70.3,29.84,South,173,0.0,2.0,92,0.00,,,0.00,Wunderground v.1.15,2013-07-11 14:02:00,
2013-07-11 10:07:00,72.6,69.8,29.84,South,185,2.0,5.0,91,0.00,,,0.00,Wunderground v.1.15,2013-07-11 14:07:00,
2013-07-11 10:12:00,72.4,69.6,29.84,South,185,0.0,4.0,91,0.00,,,0.00,Wunderground v.1.15,2013-07-11 14:12:00,
2013-07-11 10:17:00,72.2,69.4,29.84,South,184,0.0,4.0,91,0.00,,,0.00,Wunderground v.1.15,2013-07-11 14:17:00,
2013-07-11 10:22:00,72.2,69.7,29.84,South,184,0.0,0.0,92,0.00,,,0.00,Wunderground v.1.15,2013-07-11 14:22:00,
2013-07-11 10:27:00,72.4,69.9,29.84,South,184,0.0,1.0,92,0.00,,,0.00,Wunderground v.1.15,2013-07-11 14:27:00,
2013-07-11 10:32:00,72.5,70.0,29.85,South,184,0.0,0.0,92,0.00,,,0.00,Wunderground v.1.15,2013-07-11 14:32:00,
2013-07-11 10:37:00,72.6,70.1,29.85,South,184,0.0,0.0,92,0.00,,,0.00,Wunderground v.1.15,2013-07-11 14:37:00,
2013-07-11 10:42:00,72.7,70.2,29.85,South,185,0.0,1.0,92,0.00,,,0.00,Wunderground v.1.15,2013-07-11 14:42:00,
2013-07-11 10:47:00,72.8,70.3,29.85,South,185,0.0,1.0,92,0.00,,,0.00,Wunderground v.1.15,2013-07-11 14:47:00,
2013-07-11 10:52:00,73.0,70.5,29.84,South,184,0.0,0.0,92,0.00,,,0.00,Wunderground v.1.15,2013-07-11 14:52:00,
2013-07-11 10:57:00,73.1,70.6,29.85,South,184,0.0,0.0,92,0.00,,,0.00,Wunderground v.1.15,2013-07-11 14:57:00,
2013-07-11 11:02:00,73.4,70.9,29.84,South,184,0.0,0.0,92,0.00,,,0.00,Wunderground v.1.15,2013-07-11 15:02:00,
2013-07-11 11:07:00,73.8,71.6,29.84,South,184,0.0,1.0,93,0.00,,,0.00,Wunderground v.1.15,2013-07-11 15:07:00,
2013-07-11 11:12:00,74.1,71.9,29.84,South,184,0.0,1.0,93,0.00,,,0.00,Wunderground v.1.15,2013-07-11 15:12:00,
2013-07-11 11:17:00,74.5,72.3,29.85,South,184,0.0,2.0,93,0.00,,,0.00,Wunderground v.1.15,2013-07-11 15:17:00,
2013-07-11 11:22:00,74.7,72.2,29.84,South,185,0.0,0.0,92,0.00,,,0.00,Wunderground v.1.15,2013-07-11 15:22:00,
2013-07-11 11:27:00,74.9,72.7,29.85,South,185,0.0,1.0,93,0.00,,,0.00,Wunderground v.1.15,2013-07-11 15:27:00,
2013-07-11 11:32:00,75.2,73.0,29.84,South,184,0.0,1.0,93,0.00,,,0.00,Wunderground v.1.15,2013-07-11 15:32:00,
2013-07-11 11:37:00,75.4,72.9,29.85,South,184,0.0,1.0,92,0.00,,,0.00,Wunderground v.1.15,2013-07-11 15:37:00,
2013-07-11 11:42:00,75.6,73.1,29.85,South,184,0.0,2.0,92,0.00,,,0.00,Wunderground v.1.15,2013-07-11 15:42:00,
2013-07-11 11:47:00,75.8,73.3,29.85,South,184,0.0,2.0,92,0.00,,,0.00,Wunderground v.1.15,2013-07-11 15:47:00,
2013-07-11 11:52:00,75.9,73.4,29.85,WSW,237,3.0,5.0,92,0.00,,,0.00,Wunderground v.1.15,2013-07-11 15:52:00,
2013-07-11 11:57:00,75.9,73.4,29.85,WSW,237,0.0,5.0,92,0.00,,,0.00,Wunderground v.1.15,2013-07-11 15:57:00,
2013-07-11 12:02:00,76.1,73.6,29.85,WSW,237,0.0,1.0,92,0.00,,,0.00,Wunderground v.1.15,2013-07-11 16:02:00,
2013-07-11 12:08:00,76.6,74.1,29.85,WSW,237,0.0,2.0,92,0.00,,,0.00,Wunderground v.1.15,2013-07-11 16:08:00,
2013-07-11 12:13:00,76.8,74.0,29.85,WSW,252,0.0,5.0,91,0.00,,,0.00,Wunderground v.1.15,2013-07-11 16:13:00,
2013-07-11 12:18:00,77.1,74.3,29.85,SW,236,0.0,5.0,91,0.00,,,0.00,Wunderground v.1.15,2013-07-11 16:18:00,
2013-07-11 12:23:00,77.4,74.2,29.85,SW,234,5.0,5.0,90,0.00,,,0.00,Wunderground v.1.15,2013-07-11 16:23:00,
2013-07-11 12:28:00,77.3,73.8,29.85,SW,234,0.0,5.0,89,0.00,,,0.00,Wunderground v.1.15,2013-07-11 16:28:00,
2013-07-11 12:32:00,77.7,74.2,29.85,SW,234,0.0,1.0,89,0.00,,,0.00,Wunderground v.1.15,2013-07-11 16:32:00,
2013-07-11 12:37:00,78.0,74.2,29.85,WSW,238,4.0,4.0,88,0.00,,,0.00,Wunderground v.1.15,2013-07-11 16:37:00,
2013-07-11 12:42:00,78.5,74.6,29.85,WNW,290,0.0,5.0,88,0.00,,,0.00,Wunderground v.1.15,2013-07-11 16:42:00,
2013-07-11 12:47:00,78.8,73.9,29.85,WSW,241,0.0,6.0,85,0.00,,,0.00,Wunderground v.1.15,2013-07-11 16:47:00,
2013-07-11 12:52:00,79.3,74.0,29.84,SSW,202,0.0,2.0,84,0.00,,,0.00,Wunderground v.1.15,2013-07-11 16:52:00,
2013-07-11 12:58:00,79.7,73.7,29.84,WSW,238,2.0,6.0,82,0.00,,,0.00,Wunderground v.1.15,2013-07-11 16:58:00,
2013-07-11 13:03:00,80.1,74.1,29.84,NW,315,0.0,10.0,82,0.00,,,0.00,Wunderground v.1.15,2013-07-11 17:03:00,
2013-07-11 13:08:00,80.8,73.3,29.84,WSW,239,2.0,10.0,78,0.00,,,0.00,Wunderground v.1.15,2013-07-11 17:08:00,
2013-07-11 13:13:00,81.2,72.9,29.84,WSW,238,0.0,7.0,76,0.00,,,0.00,Wunderground v.1.15,2013-07-11 17:13:00,
2013-07-11 13:18:00,81.6,72.9,29.84,WSW,253,0.0,7.0,75,0.00,,,0.00,Wunderground v.1.15,2013-07-11 17:18:00,
2013-07-11 13:23:00,82.2,73.1,29.84,NW,314,0.0,7.0,74,0.00,,,0.00,Wunderground v.1.15,2013-07-11 17:23:00,
2013-07-11 13:28:00,82.5,73.0,29.84,WSW,251,3.0,9.0,73,0.00,,,0.00,Wunderground v.1.15,2013-07-11 17:28:00,
2013-07-11 13:33:00,82.7,73.2,29.83,SW,227,0.0,3.0,73,0.00,,,0.00,Wunderground v.1.15,2013-07-11 17:33:00,
2013-07-11 13:38:00,82.7,73.6,29.83,WSW,257,2.0,3.0,74,0.00,,,0.00,Wunderground v.1.15,2013-07-11 17:38:00,
2013-07-11 13:43:00,82.8,72.8,29.83,WNW,292,2.0,4.0,72,0.00,,,0.00,Wunderground v.1.15,2013-07-11 17:43:00,
2013-07-11 13:48:00,82.7,72.7,29.83,WNW,290,0.0,4.0,72,0.00,,,0.00,Wunderground v.1.15,2013-07-11 17:48:00,
2013-07-11 13:54:00,82.6,72.7,29.83,WSW,256,0.0,6.0,72,0.00,,,0.00,Wunderground v.1.15,2013-07-11 17:54:00,
2013-07-11 13:59:00,82.5,72.1,29.83,SW,234,0.0,6.0,71,0.00,,,0.00,Wunderground v.1.15,2013-07-11 17:59:00,
2013-07-11 14:04:00,82.5,71.7,29.83,NW,310,0.0,7.0,70,0.00,,,0.00,Wunderground v.1.15,2013-07-11 18:04:00,
2013-07-11 14:09:00,82.7,71.9,29.83,WNW,284,0.0,7.0,70,0.00,,,0.00,Wunderground v.1.15,2013-07-11 18:09:00,
2013-07-11 14:14:00,83.1,71.9,29.83,WSW,240,5.0,5.0,69,0.00,,,0.00,Wunderground v.1.15,2013-07-11 18:14:00,
2013-07-11 14:19:00,83.0,72.2,29.83,WSW,240,4.0,6.0,70,0.00,,,0.00,Wunderground v.1.15,2013-07-11 18:19:00,
2013-07-11 14:24:00,83.0,72.6,29.83,SW,236,0.0,5.0,71,0.00,,,0.00,Wunderground v.1.15,2013-07-11 18:24:00,
2013-07-11 14:29:00,83.0,72.2,29.83,SW,220,0.0,5.0,70,0.00,,,0.00,Wunderground v.1.15,2013-07-11 18:29:00,
2013-07-11 14:34:00,82.8,72.0,29.83,SW,219,0.0,3.0,70,0.00,,,0.00,Wunderground v.1.15,2013-07-11 18:34:00,
2013-07-11 14:39:00,82.8,72.0,29.83,SW,219,0.0,3.0,70,0.00,,,0.00,Wunderground v.1.15,2013-07-11 18:39:00,
2013-07-11 14:44:00,82.8,71.6,29.83,SW,219,0.0,2.0,69,0.00,,,0.00,Wunderground v.1.15,2013-07-11 18:44:00,
2013-07-11 14:49:00,82.8,71.6,29.83,SW,235,2.0,4.0,69,0.00,,,0.00,Wunderground v.1.15,2013-07-11 18:49:00,
2013-07-11 14:54:00,82.7,71.5,29.83,SW,234,1.0,4.0,69,0.00,,,0.00,Wunderground v.1.15,2013-07-11 18:54:00,
2013-07-11 14:59:00,82.5,71.3,29.83,SW,225,1.0,4.0,69,0.00,,,0.00,Wunderground v.1.15,2013-07-11 18:59:00,
2013-07-11 15:04:00,82.5,72.1,29.83,SW,217,0.0,2.0,71,0.00,,,0.00,Wunderground v.1.15,2013-07-11 19:04:00,
2013-07-11 15:09:00,82.7,72.7,29.83,SSW,205,0.0,2.0,72,0.00,,,0.00,Wunderground v.1.15,2013-07-11 19:09:00,
2013-07-11 15:14:00,83.1,73.1,29.83,SSW,199,0.0,0.0,72,0.00,,,0.00,Wunderground v.1.15,2013-07-11 19:14:00,
2013-07-11 15:19:00,83.4,72.2,29.83,West,266,1.0,3.0,69,0.00,,,0.00,Wunderground v.1.15,2013-07-11 19:19:00,
2013-07-11 15:25:00,83.5,72.3,29.83,SSW,205,1.0,6.0,69,0.00,,,0.00,Wunderground v.1.15,2013-07-11 19:25:00,
2013-07-11 15:30:00,83.5,72.3,29.83,SSW,207,0.0,1.0,69,0.00,,,0.00,Wunderground v.1.15,2013-07-11 19:30:00,
2013-07-11 15:35:00,83.3,72.1,29.83,South,175,2.0,5.0,69,0.00,,,0.00,Wunderground v.1.15,2013-07-11 19:35:00,
2013-07-11 15:40:00,83.0,72.6,29.83,South,184,4.0,5.0,71,0.00,,,0.00,Wunderground v.1.15,2013-07-11 19:40:00,
2013-07-11 15:45:00,83.0,73.0,29.83,South,182,0.0,5.0,72,0.00,,,0.00,Wunderground v.1.15,2013-07-11 19:45:00,
2013-07-11 15:50:00,83.2,72.4,29.83,SW,222,5.0,6.0,70,0.00,,,0.00,Wunderground v.1.15,2013-07-11 19:50:00,
2013-07-11 15:55:00,83.3,72.5,29.82,SW,221,0.0,6.0,70,0.00,,,0.00,Wunderground v.1.15,2013-07-11 19:55:00,
2013-07-11 16:00:00,83.6,73.2,29.82,South,173,0.0,4.0,71,0.00,,,0.00,Wunderground v.1.15,2013-07-11 20:00:00,
2013-07-11 16:05:00,83.6,72.3,29.83,South,188,4.0,7.0,69,0.00,,,0.00,Wunderground v.1.15,2013-07-11 20:05:00,
2013-07-11 16:10:00,83.5,72.7,29.83,SW,223,1.0,3.0,70,0.00,,,0.00,Wunderground v.1.15,2013-07-11 20:10:00,
2013-07-11 16:15:00,83.9,73.1,29.83,SSW,199,0.0,6.0,70,0.00,,,0.00,Wunderground v.1.15,2013-07-11 20:15:00,
2013-07-11 16:20:00,83.9,72.2,29.83,SW,222,4.0,7.0,68,0.00,,,0.00,Wunderground v.1.15,2013-07-11 20:20:00,
2013-07-11 16:25:00,83.8,73.0,29.83,SSW,207,1.0,7.0,70,0.00,,,0.00,Wunderground v.1.15,2013-07-11 20:25:00,
2013-07-11 16:30:00,83.5,72.3,29.83,WSW,247,0.0,4.0,69,0.00,,,0.00,Wunderground v.1.15,2013-07-11 20:30:00,
2013-07-11 16:36:00,83.3,72.5,29.83,SSW,200,3.0,4.0,70,0.00,,,0.00,Wunderground v.1.15,2013-07-11 20:36:00,
2013-07-11 16:41:00,83.2,72.4,29.83,SSW,210,0.0,2.0,70,0.00,,,0.00,Wunderground v.1.15,2013-07-11 20:41:00,
2013-07-11 16:46:00,83.1,73.1,29.83,SSW,210,0.0,2.0,72,0.00,,,0.00,Wunderground v.1.15,2013-07-11 20:46:00,
2013-07-11 16:50:00,82.8,72.8,29.83,SSE,162,0.0,2.0,72,0.00,,,0.00,Wunderground v.1.15,2013-07-11 20:50:00,
2013-07-11 16:56:00,82.6,72.7,29.83,South,184,0.0,3.0,72,0.00,,,0.00,Wunderground v.1.15,2013-07-11 20:56:00,
2013-07-11 17:01:00,82.2,72.3,29.85,NNE,22,8.0,9.0,72,0.00,,,0.00,Wunderground v.1.15,2013-07-11 21:01:00,
2013-07-11 17:06:00,80.2,70.4,29.85,ENE,69,5.0,11.0,72,0.00,,,0.00,Wunderground v.1.15,2013-07-11 21:06:00,
2013-07-11 17:11:00,78.2,70.0,29.85,NNE,21,5.0,6.0,76,0.00,,,0.00,Wunderground v.1.15,2013-07-11 21:11:00,
2013-07-11 17:16:00,76.2,69.2,29.85,North,9,5.0,14.0,79,0.00,,,0.00,Wunderground v.1.15,2013-07-11 21:16:00,
2013-07-11 17:21:00,74.3,68.8,29.85,NNE,15,5.0,10.0,83,0.00,,,0.00,Wunderground v.1.15,2013-07-11 21:21:00,
2013-07-11 17:26:00,73.5,68.7,29.85,NE,40,1.0,10.0,85,0.00,,,0.00,Wunderground v.1.15,2013-07-11 21:26:00,
2013-07-11 17:31:00,73.4,69.3,29.85,NE,50,3.0,4.0,87,0.00,,,0.00,Wunderground v.1.15,2013-07-11 21:31:00,
2013-07-11 17:36:00,73.5,69.7,29.85,NE,49,4.0,5.0,88,0.00,,,0.00,Wunderground v.1.15,2013-07-11 21:36:00,
2013-07-11 17:41:00,73.4,69.6,29.86,ENE,75,0.0,1.0,88,0.00,,,0.00,Wunderground v.1.15,2013-07-11 21:41:00,
2013-07-11 17:46:00,73.5,69.7,29.86,NNE,21,0.0,3.0,88,0.00,,,0.00,Wunderground v.1.15,2013-07-11 21:46:00,
2013-07-11 17:51:00,73.5,69.7,29.86,NNE,21,0.0,3.0,88,0.00,,,0.00,Wunderground v.1.15,2013-07-11 21:51:00,
2013-07-11 17:56:00,73.7,69.9,29.86,NNE,21,1.0,5.0,88,0.00,,,0.00,Wunderground v.1.15,2013-07-11 21:56:00,
2013-07-11 18:01:00,73.8,70.0,29.86,NNE,21,0.0,1.0,88,0.00,,,0.00,Wunderground v.1.15,2013-07-11 22:01:00,
2013-07-11 18:06:00,74.0,70.2,29.86,NNE,21,0.0,3.0,88,0.00,,,0.00,Wunderground v.1.15,2013-07-11 22:06:00,
2013-07-11 18:11:00,74.1,70.3,29.86,NNE,21,0.0,1.0,88,0.00,,,0.00,Wunderground v.1.15,2013-07-11 22:11:00,
2013-07-11 18:16:00,74.1,70.3,29.87,NNE,21,0.0,1.0,88,0.00,,,0.00,Wunderground v.1.15,2013-07-11 22:16:00,
2013-07-11 18:22:00,74.2,70.4,29.87,NNE,21,0.0,0.0,88,0.00,,,0.00,Wunderground v.1.15,2013-07-11 22:22:00,
2013-07-11 18:27:00,74.3,70.5,29.87,NNE,21,1.0,1.0,88,0.00,,,0.00,Wunderground v.1.15,2013-07-11 22:27:00,
2013-07-11 18:32:00,74.3,70.5,29.87,NNE,21,0.0,0.0,88,0.00,,,0.00,Wunderground v.1.15,2013-07-11 22:32:00,
2013-07-11 18:37:00,74.5,70.7,29.87,NNE,21,0.0,1.0,88,0.00,,,0.00,Wunderground v.1.15,2013-07-11 22:37:00,
2013-07-11 18:42:00,74.5,70.7,29.87,NNE,21,0.0,0.0,88,0.00,,,0.00,Wunderground v.1.15,2013-07-11 22:42:00,
2013-07-11 18:47:00,74.5,70.4,29.87,NNE,21,0.0,1.0,87,0.00,,,0.00,Wunderground v.1.15,2013-07-11 22:47:00,
2013-07-11 18:52:00,74.5,70.4,29.87,NNE,21,0.0,0.0,87,0.00,,,0.00,Wunderground v.1.15,2013-07-11 22:52:00,
2013-07-11 18:57:00,74.7,70.9,29.88,NNE,21,0.0,0.0,88,0.00,,,0.00,Wunderground v.1.15,2013-07-11 22:57:00,
2013-07-11 19:02:00,74.9,71.1,29.88,NNE,21,0.0,0.0,88,0.00,,,0.00,Wunderground v.1.15,2013-07-11 23:02:00,
2013-07-11 19:07:00,75.1,71.6,29.88,NNE,21,0.0,0.0,89,0.00,,,0.00,Wunderground v.1.15,2013-07-11 23:07:00,
2013-07-11 19:12:00,75.1,71.6,29.88,NNE,21,0.0,0.0,89,0.00,,,0.00,Wunderground v.1.15,2013-07-11 23:12:00,
2013-07-11 19:17:00,75.2,71.7,29.89,NNE,21,0.0,0.0,89,0.00,,,0.00,Wunderground v.1.15,2013-07-11 23:17:00,
2013-07-11 19:22:00,75.2,71.7,29.89,NNE,21,0.0,1.0,89,0.00,,,0.00,Wunderground v.1.15,2013-07-11 23:22:00,
2013-07-11 19:27:00,75.1,71.6,29.89,NNE,21,0.0,1.0,89,0.00,,,0.00,Wunderground v.1.15,2013-07-11 23:27:00,
2013-07-11 19:32:00,74.9,71.4,29.89,NNE,21,0.0,0.0,89,0.00,,,0.00,Wunderground v.1.15,2013-07-11 23:32:00,
2013-07-11 19:37:00,74.9,71.4,29.89,NNE,21,0.0,0.0,89,0.00,,,0.00,Wunderground v.1.15,2013-07-11 23:37:00,
2013-07-11 19:42:00,74.8,71.3,29.89,NNE,21,0.0,0.0,89,0.00,,,0.00,Wunderground v.1.15,2013-07-11 23:42:00,
2013-07-11 19:47:00,74.8,71.3,29.89,NNE,21,0.0,0.0,89,0.00,,,0.00,Wunderground v.1.15,2013-07-11 23:47:00,
2013-07-11 19:52:00,75.0,71.9,29.89,NNE,21,0.0,0.0,90,0.00,,,0.00,Wunderground v.1.15,2013-07-11 23:52:00,
2013-07-11 19:58:00,75.0,71.9,29.89,NNE,21,0.0,0.0,90,0.00,,,0.00,Wunderground v.1.15,2013-07-11 23:58:00,
2013-07-11 20:03:00,74.9,71.8,29.89,NNE,21,0.0,0.0,90,0.00,,,0.00,Wunderground v.1.15,2013-07-12 00:03:00,
2013-07-11 20:08:00,74.9,71.8,29.90,NNE,21,0.0,0.0,90,0.00,,,0.00,Wunderground v.1.15,2013-07-12 00:08:00,
2013-07-11 20:13:00,74.8,71.7,29.90,NNE,21,0.0,0.0,90,0.00,,,0.00,Wunderground v.1.15,2013-07-12 00:13:00,
2013-07-11 20:18:00,74.7,71.6,29.90,NNE,21,0.0,0.0,90,0.00,,,0.00,Wunderground v.1.15,2013-07-12 00:18:00,
2013-07-11 20:23:00,74.7,71.6,29.90,NNE,21,0.0,0.0,90,0.00,,,0.00,Wunderground v.1.15,2013-07-12 00:23:00,
2013-07-11 20:28:00,74.7,71.6,29.90,NNE,21,0.0,0.0,90,0.00,,,0.00,Wunderground v.1.15,2013-07-12 00:28:00,
2013-07-11 20:33:00,74.6,71.5,29.90,NNE,21,0.0,0.0,90,0.00,,,0.00,Wunderground v.1.15,2013-07-12 00:33:00,
2013-07-11 20:38:00,74.4,71.3,29.91,NNE,21,0.0,0.0,90,0.00,,,0.00,Wunderground v.1.15,2013-07-12 00:38:00,
2013-07-11 20:43:00,74.2,71.4,29.91,NNE,21,0.0,0.0,91,0.00,,,0.00,Wunderground v.1.15,2013-07-12 00:43:00,
2013-07-11 20:48:00,74.0,71.2,29.91,NNE,21,0.0,0.0,91,0.00,,,0.00,Wunderground v.1.15,2013-07-12 00:48:00,
2013-07-11 20:53:00,73.9,71.1,29.91,NNE,21,0.0,0.0,91,0.00,,,0.00,Wunderground v.1.15,2013-07-12 00:53:00,
2013-07-11 20:58:00,73.7,70.9,29.91,NNE,21,0.0,0.0,91,0.00,,,0.00,Wunderground v.1.15,2013-07-12 00:58:00,
2013-07-11 21:03:00,73.5,70.7,29.91,NNE,21,0.0,0.0,91,0.00,,,0.00,Wunderground v.1.15,2013-07-12 01:03:00,
2013-07-11 21:08:00,73.3,70.5,29.91,NNE,21,0.0,0.0,91,0.00,,,0.00,Wunderground v.1.15,2013-07-12 01:08:00,
2013-07-11 21:13:00,73.2,70.4,29.91,NNE,21,0.0,0.0,91,0.00,,,0.00,Wunderground v.1.15,2013-07-12 01:13:00,
2013-07-11 21:18:00,73.1,70.3,29.91,NNE,21,0.0,0.0,91,0.00,,,0.00,Wunderground v.1.15,2013-07-12 01:18:00,
2013-07-11 21:23:00,72.9,70.1,29.91,NNE,21,0.0,0.0,91,0.00,,,0.00,Wunderground v.1.15,2013-07-12 01:23:00,
2013-07-11 21:28:00,72.7,70.2,29.92,NNE,21,0.0,0.0,92,0.00,,,0.00,Wunderground v.1.15,2013-07-12 01:28:00,
2013-07-11 21:33:00,72.5,69.7,29.92,NNE,21,0.0,0.0,91,0.00,,,0.00,Wunderground v.1.15,2013-07-12 01:33:00,
2013-07-11 21:38:00,72.3,69.8,29.92,NNE,21,0.0,0.0,92,0.00,,,0.00,Wunderground v.1.15,2013-07-12 01:38:00,
2013-07-11 21:43:00,72.2,69.7,29.92,NNE,21,0.0,0.0,92,0.00,,,0.00,Wunderground v.1.15,2013-07-12 01:43:00,
2013-07-11 21:49:00,72.1,69.6,29.92,NNE,21,0.0,0.0,92,0.00,,,0.00,Wunderground v.1.15,2013-07-12 01:49:00,
2013-07-11 21:54:00,72.1,69.6,29.93,NNE,21,0.0,0.0,92,0.00,,,0.00,Wunderground v.1.15,2013-07-12 01:54:00,
2013-07-11 21:59:00,72.1,69.6,29.93,NNE,21,0.0,0.0,92,0.00,,,0.00,Wunderground v.1.15,2013-07-12 01:59:00,
2013-07-11 22:04:00,72.0,69.9,29.93,NNE,21,0.0,0.0,93,0.00,,,0.00,Wunderground v.1.15,2013-07-12 02:04:00,
2013-07-11 22:09:00,72.0,69.9,29.93,NNE,21,0.0,0.0,93,0.00,,,0.00,Wunderground v.1.15,2013-07-12 02:09:00,
2013-07-11 22:14:00,72.0,69.9,29.93,NNE,21,0.0,1.0,93,0.00,,,0.00,Wunderground v.1.15,2013-07-12 02:14:00,
2013-07-11 22:19:00,71.8,69.3,29.93,NNE,21,0.0,2.0,92,0.00,,,0.00,Wunderground v.1.15,2013-07-12 02:19:00,
2013-07-11 22:24:00,71.5,69.1,29.94,NNW,331,3.0,4.0,92,0.00,,,0.00,Wunderground v.1.15,2013-07-12 02:24:00,
2013-07-11 22:29:00,71.3,68.9,29.94,NNW,334,4.0,6.0,92,0.00,,,0.00,Wunderground v.1.15,2013-07-12 02:29:00,
2013-07-11 22:34:00,71.3,68.5,29.94,NNW,333,0.0,3.0,91,0.00,,,0.00,Wunderground v.1.15,2013-07-12 02:34:00,
2013-07-11 22:39:00,71.6,68.2,29.94,NNW,344,0.0,6.0,89,0.00,,,0.00,Wunderground v.1.15,2013-07-12 02:39:00,
2013-07-11 22:44:00,71.8,68.1,29.94,NNW,347,0.0,5.0,88,0.00,,,0.00,Wunderground v.1.15,2013-07-12 02:44:00,
2013-07-11 22:49:00,71.8,67.7,29.94,NNW,347,0.0,5.0,87,0.00,,,0.00,Wunderground v.1.15,2013-07-12 02:49:00,
2013-07-11 22:54:00,71.7,66.9,29.94,NNW,346,0.0,5.0,85,0.00,,,0.00,Wunderground v.1.15,2013-07-12 02:54:00,
2013-07-11 22:59:00,71.7,66.6,29.94,NNW,342,3.0,5.0,84,0.00,,,0.00,Wunderground v.1.15,2013-07-12 02:59:00,
2013-07-11 23:04:00,71.6,66.2,29.94,North,360,0.0,6.0,83,0.00,,,0.00,Wunderground v.1.15,2013-07-12 03:04:00,
2013-07-11 23:09:00,71.6,66.2,29.94,NW,322,5.0,6.0,83,0.00,,,0.00,Wunderground v.1.15,2013-07-12 03:09:00,
2013-07-11 23:14:00,71.6,65.8,29.94,NNW,344,0.0,6.0,82,0.00,,,0.00,Wunderground v.1.15,2013-07-12 03:14:00,
2013-07-11 23:19:00,71.7,65.6,29.95,NNW,348,2.0,6.0,81,0.00,,,0.00,Wunderground v.1.15,2013-07-12 03:19:00,
2013-07-11 23:24:00,71.6,65.5,29.95,NNW,348,1.0,5.0,81,0.00,,,0.00,Wunderground v.1.15,2013-07-12 03:24:00,
2013-07-11 23:29:00,71.5,65.4,29.95,NNW,348,0.0,5.0,81,0.00,,,0.00,Wunderground v.1.15,2013-07-12 03:29:00,
2013-07-11 23:34:00,71.3,65.2,29.95,NNW,348,1.0,4.0,81,0.00,,,0.00,Wunderground v.1.15,2013-07-12 03:34:00,
2013-07-11 23:39:00,71.3,65.2,29.95,NNW,348,0.0,4.0,81,0.00,,,0.00,Wunderground v.1.15,2013-07-12 03:39:00,
2013-07-11 23:44:00,71.1,65.0,29.95,NNW,348,0.0,1.0,81,0.00,,,0.00,Wunderground v.1.15,2013-07-12 03:44:00,
2013-07-11 23:49:00,71.0,64.9,29.95,NNW,348,0.0,2.0,81,0.00,,,0.00,Wunderground v.1.15,2013-07-12 03:49:00,
2013-07-11 23:55:00,70.8,64.7,29.96,NNW,348,0.0,3.0,81,0.00,,,0.00,Wunderground v.1.15,2013-07-12 03:55:00,
2013-07-11 23:59:00,70.7,64.6,29.96,NNW,348,1.0,3.0,81,0.00,,,0.00,Wunderground v.1.15,2013-07-12 03:59:00,